Domov               UVHVVR             MKGP            O straneh              
ZDRAVSTVENO VARSTVO RASTLIN
  MREŽA AGROMET. POSTAJ
 ► PROGNOSTIČNA OBVESTILA
AGROMETEOROLOŠKI PODATKI -
ARSO
OBVLADOVANJE TVEGANJ ZARADI
NEUGODNIH VREMENSKIH RAZMER
  ► NARAVNE NESREČE
  ► SUŠA/MOČA
  ► NAMAKANJE
  ► ŽLED (gozdarstvo)
KARTOGRAFSKI PRIKAZI
SPLETNE POVEZAVE
PROJEKTI IN PUBLIKACIJE

AGROMETEOROLOŠKA MREŽA: VREMENSKE POSTAJE IN FENOLOŠKA OPAZOVANJA

Pregled podatkov za lokacijo Blanca, meteorološka postaja 27263

Pregled senzorjev na lokaciji

ID Ime Zadnja
vrednost
Datum
zadnje
spremembe
Tip
senzorja
2154 Omočenost lista (U) 0 U 20.6.2018 16:33 A730WET
2155 Padavine (mm) 0 mm 20.6.2018 16:34 Generic
2153 Relativna vlaga 2 m (% RH) 44,08 % RH 20.6.2018 16:33 Generic 0 - 100 %
2158 Temperatura 2 m (°C) 27,9 °C 20.6.2018 16:33 Generic -40 - +60 °C

Pregled podatkov zadnjih 24 ur

Zap.
št.
Datum in čas Blanca
Omočenost
lista
Padavine Relativna
vlaga
2
m
Temperatura
2
m
1 20.6.2018 17:00
2 20.6.2018 16:30
3 20.6.2018 16:00
4 20.6.2018 15:30 0 0 44,5 27,9
5 20.6.2018 15:00 0 0 43,5 28,2
6 20.6.2018 14:30 0 0 44,6 27,6
7 20.6.2018 14:00 0 0 45,1 27,4
8 20.6.2018 13:30 0 0 44,1 27,2
9 20.6.2018 13:00 0 0 44,2 26,7
10 20.6.2018 12:30 0 0 43,5 26,8
11 20.6.2018 12:00 0 0 43,6 26,4
12 20.6.2018 11:30 0 0 45,7 25,7
13 20.6.2018 11:00 0 0 49,1 25,4
14 20.6.2018 10:30 0 0 51,7 24
15 20.6.2018 10:00 0 0 53,8 23,4
16 20.6.2018 09:30 0 0 56,6 22,4
17 20.6.2018 09:00 0 0 62,3 21,5
18 20.6.2018 08:30 0 0 68,9 20,5
19 20.6.2018 08:00 0 0 70,8 19,7
20 20.6.2018 07:30 0 0 73,4 18,5
21 20.6.2018 07:00 0 0 79,2 17,6
22 20.6.2018 06:30 0 0 80,4 17,3
23 20.6.2018 06:00 0 0 83,1 16,7
24 20.6.2018 05:30 0 0 83,6 16,5
25 20.6.2018 05:00 0 0 87,2 15,9
26 20.6.2018 04:30 0 0 87 15,9
27 20.6.2018 04:00 0 0 84,6 16,1
28 20.6.2018 03:30 0 0 82,6 16,3
29 20.6.2018 03:00 0 0 85,2 15,9
30 20.6.2018 02:30 0 0 84,4 16
31 20.6.2018 02:00 0 0 83,4 16,4
32 20.6.2018 01:30 0 0 85,9 16
33 20.6.2018 01:00 0 0 82,7 16,6
34 20.6.2018 00:30 0 0 80,4 17
35 20.6.2018 00:00 0 0 79 17,4
36 19.6.2018 23:30 0 0 77,1 17,9
37 19.6.2018 23:00 0 0 78,8 17,8
38 19.6.2018 22:30 0 0 69,7 19,2
39 19.6.2018 22:00 0 0 71,6 19,5
40 19.6.2018 21:30 0 0 72,6 19,8
41 19.6.2018 21:00 0 0 67,4 20,6
42 19.6.2018 20:30 0 0 63,3 21,3
43 19.6.2018 20:00 0 0 55,4 22,5
44 19.6.2018 19:30 0 0 48,9 23,8
45 19.6.2018 19:00 0 0 45,8 24,8
46 19.6.2018 18:30 0 0 42 25,7
47 19.6.2018 18:00 0 0 43,8 25,9
48 19.6.2018 17:30 0 0 42,5 26,1
© 2011 Ministrstvo za kmetijstvo, gozdarstvo in prehrano. Vse pravice pridržane.